This is the latest recevied weather packets stored in our database for station/object N8XHB. If no packets are shown the sender has not sent any weather packets the latest 10 day(s).
| Time | Temp. | Humidity | Pressure | Rain* | Wind** | Luminosity | Snow |
|---|---|---|---|---|---|---|---|
| 1777562568 | 9.44° C | 59% | 1016.5 hPa | 0 mm | - | 289 W/m² | - |
| 1777562265 | 9.44° C | 62% | 1016.6 hPa | 0 mm | - | 864 W/m² | - |
| 1777561963 | 8.89° C | 65% | 1016.6 hPa | 0 mm | - | 767 W/m² | - |
| 1777561660 | 8.33° C | 65% | 1016.5 hPa | 0 mm | - | 761 W/m² | - |
| 1777561356 | 8.33° C | 65% | 1016.6 hPa | 0 mm | - | 104 W/m² | - |
| 1777561051 | 8.33° C | 69% | 1016.5 hPa | 0 mm | - | 252 W/m² | - |
| 1777560747 | 7.78° C | 68% | 1016.6 hPa | 0 mm | - | 598 W/m² | - |
| 1777560443 | 7.78° C | 72% | 1016.7 hPa | 0 mm | - | 213 W/m² | - |
| 1777560142 | 7.78° C | 69% | 1016.7 hPa | 0 mm | - | 480 W/m² | - |
| 1777559838 | 7.22° C | 70% | 1016.8 hPa | 0 mm | - | 559 W/m² | - |
| 1777559534 | 7.78° C | 70% | 1016.6 hPa | 0 mm | - | 603 W/m² | - |
| 1777559232 | 7.78° C | 71% | 1016.7 hPa | 0 mm | - | 452 W/m² | - |
| 1777558932 | 7.78° C | 71% | 1016.8 hPa | 0 mm | - | 505 W/m² | - |
| 1777558628 | 6.67° C | 74% | 1016.7 hPa | 0 mm | - | 477 W/m² | - |
| 1777558323 | 6.67° C | 74% | 1016.6 hPa | 0 mm | - | 250 W/m² | - |
| 1777558021 | 6.11° C | 76% | 1016.5 hPa | 0 mm | - | 247 W/m² | - |
| 1777557717 | 6.67° C | 74% | 1016.4 hPa | 0 mm | - | 195 W/m² | - |
| 1777557413 | 6.67° C | 76% | 1016.2 hPa | 0 mm | - | 305 W/m² | - |
| 1777557110 | 6.67° C | 77% | 1016.5 hPa | 0 mm | - | 202 W/m² | - |
| 1777556805 | 6.67° C | 75% | 1016.4 hPa | 0 mm | - | 136 W/m² | - |
| 1777556502 | 7.78° C | 74% | 1016.3 hPa | 0 mm | - | 181 W/m² | - |
| 1777556201 | 7.78° C | 73% | 1015.9 hPa | 0 mm | - | 301 W/m² | - |
| 1777555898 | 7.22° C | 75% | 1016.1 hPa | 0 mm | - | 257 W/m² | - |
| 1777555593 | 7.22° C | 73% | 1015.9 hPa | 0 mm | - | 248 W/m² | - |
| 1777555290 | 6.67° C | 76% | 1015.9 hPa | 0 mm | - | 262 W/m² | - |
* Rain latest hour (hover to see other rain measurements)
** Current wind speed in m/s (hover to see current wind gust speed)